Regional Weather Roundup
Issued by NWS

Home | Current Version | Previous Version | Text Only | Print | Product List | Glossary On
Versions: 1 2 3 4 5 6 7 8 9 10 11 12 13 14 15 16 17 18 19 20 21 22 23 24 25 26 27 28 29 30 31 32 33 34 35 36 37 38 39 40 41 42 43 44 45 46 47 48 49 50
000
ASUS43 KLSX 011607
RWRMO

WEATHER SUMMARY FOR MISSOURI
NATIONAL WEATHER SERVICE SPRINGFIELD MO
1100 AM CDT WED APR 01 2015

NOTE: "FAIR" INDICATES FEW OR NO CLOUDS BELOW 12,000 FEET WITH NO
       SIGNIFICANT WEATHER AND/OR OBSTRUCTIONS TO VISIBILITY.
       CURRENT SKY AND/OR WEATHER CONDITIONS ARE NOT AVAILABLE FOR
       CHILLICOTHE AND FARMINGTON.

MOZ001>031-035>038-043-044-053-054-011700-
...NORTHERN AND WESTERN MISSOURI...

CITY           SKY/WX    TMP DP  RH WIND       PRES   REMARKS
KANSAS CTY INT PTSUNNY   67  48  50 S16       29.87S
KANSAS C DTWN  PTSUNNY   69  48  47 SE12G17   29.87S
LEE`S SUMMIT   PTSUNNY   68  49  50 S9G18     29.89S
ST JOSEPH      MOSUNNY   70  45  40 S13       29.86S
CHILLICOTHE      N/A     68  42  38 S14G22    29.91F
KIRKSVILLE     PTSUNNY   70  36  28 S20       29.95F

$$
MOZ066>068-077>081-088>096-101>105-011700-
...SOUTHWEST MISSOURI...

CITY           SKY/WX    TMP DP  RH WIND       PRES   REMARKS
SPRINGFIELD    PTSUNNY   66  54  65 SE21G30   29.93R
JOPLIN         CLOUDY    63  58  83 SE9       29.91

$$
MOZ032>034-039>042-045>050-055>058-069>072-011700-
...CENTRAL MISSOURI...

CITY           SKY/WX    TMP DP  RH WIND       PRES   REMARKS
COLUMBIA       MOSUNNY   70  38  31 S17G28    29.97F
JEFFERSON CITY MOSUNNY   69  37  30 SE15      29.97F
ROLLA          SUNNY     68  37  32 S14       29.99F
SEDALIA        PTSUNNY   70  41  34 SE21G28   29.94S
WHITEMAN AFB   PTSUNNY   69  45  42 S15G25    29.90F
WARRENSBURG    MOSUNNY   70  45  40 SE14      29.90S
OSAGE BEACH    MOSUNNY   72  36  26 S18G29    29.97S

$$
MOZ051-052-059>065-011700-
...EAST CENTRAL MISSOURI...

CITY           SKY/WX    TMP DP  RH WIND       PRES   REMARKS
ST LOUIS INTL  PTSUNNY   69  37  30 SE17      30.03F
SPIRIT OF STL  PTSUNNY   68  37  32 S9G21     30.02S
ST CHARLES     PTSUNNY   69  38  32 SE17      30.02S

$$
MOZ072>076-082>087-097>100-106>115-011700-
...SOUTH CENTRAL AND SOUTHEAST MISSOURI...

CITY           SKY/WX    TMP DP  RH WIND       PRES   REMARKS
CAPE GIRARDEAU MOSUNNY   67  43  41 SE13      30.07S
FARMINGTON     SUNNY     68  37  32 SE13      30.10R
POPLAR BLUFF   MOSUNNY   66  46  48 SE9       30.05F
WEST PLAINS    MOSUNNY   67  44  43 E13G20    30.02F

$$


USA.gov is the U.S. government's official web portal to all federal, state and local government web resources and services.